Find Kuiper-00245

NORAD ID: 67150 Int'l Des: 2025-301 Owner: KUIP Country: US Constellation: amazon-leo operational
LEOCIRCULAR

Live Position

Loading 3D Globe...

About Kuiper-00245

Description loading...

Upcoming Passes

Passes for default location (London). Set your location on the main map for personalized predictions.

Altitude History

Loading altitude history...

Two-Line Element Set

1 67150U 25301T 26124.52108923 -.00002078 00000-0 -24371-3 0 9994
2 67150 51.9040 196.2561 0000744 87.1009 273.0038 14.79926502 21753
Epoch: May 4, 2026 • Age: 19 hours

Current Status

Altitude 629.7 km
Velocity 7.55 km/s
Sub-Earth Point 20.83°N, 27.07°E
Launch Date Dec 16, 2025
Age 0.3 years
Type internet

Technical Details

Classification Payload
Mass 490.00 kg
Dry Mass 490.00 kg
Total Mass 490.00 kg
Length 1.80 m
Diameter 0.70 m
Span 5.00 m
Shape Box + 2 pan
Manufacturer KUIP
Bus Type Kuiper
Phase Status In Orbit
Owner/State KUIP/US

Most Searched